contact:dominique.lefevre@mio.osupytheas.fr, maurice.libes@osupytheas.fr, didier.mallarino@osupytheas.fr
Project:EMSO http://www.emso-fr.org/EMSO-France
Depth: 2436.0 m
Title:EMSO Ligure Ouest : Data MII capteur MICROCAT
DateTime_Computer,Latitude,Longitude,Temperature,Conductivity,Pressure,DateTime_Instrument
DateTime_Computer,Latitude,Longitude,degC,S m-1,dbar,DateTime_Instrument
2023-01-20T00:01:16Z,42.805,6.029,13.3017,4.60068,2470.46,2023-1-20T02:07:37Z
2023-01-20T00:04:19Z,42.805,6.029,13.3017,4.60069,2470.464,2023-1-20T02:10:40Z
2023-01-20T00:07:22Z,42.805,6.029,13.3014,4.60069,2470.474,2023-1-20T02:13:43Z
2023-01-20T00:10:25Z,42.805,6.029,13.3016,4.60069,2470.483,2023-1-20T02:16:47Z
2023-01-20T00:13:29Z,42.805,6.029,13.3014,4.60069,2470.437,2023-1-20T02:19:50Z
2023-01-20T00:16:32Z,42.805,6.029,13.3016,4.60069,2470.45,2023-1-20T02:22:53Z
2023-01-20T00:19:35Z,42.805,6.029,13.3017,4.60068,2470.45,2023-1-20T02:25:56Z
2023-01-20T00:22:38Z,42.805,6.029,13.3014,4.60069,2470.423,2023-1-20T02:28:59Z
2023-01-20T00:25:41Z,42.805,6.029,13.3015,4.60069,2470.497,2023-1-20T02:32:02Z
2023-01-20T00:28:44Z,42.805,6.029,13.3016,4.60069,2470.474,2023-1-20T02:35:05Z
2023-01-20T00:31:47Z,42.805,6.029,13.3014,4.60072,2470.474,2023-1-20T02:38:08Z
2023-01-20T00:34:50Z,42.805,6.029,13.3014,4.60068,2470.46,2023-1-20T02:41:11Z
2023-01-20T00:37:53Z,42.805,6.029,13.3015,4.60067,2470.46,2023-1-20T02:44:14Z
2023-01-20T00:40:56Z,42.805,6.029,13.3014,4.60069,2470.45,2023-1-20T02:47:17Z
2023-01-20T00:43:59Z,42.805,6.029,13.3013,4.60069,2470.483,2023-1-20T02:50:21Z
2023-01-20T00:47:02Z,42.805,6.029,13.3014,4.60069,2470.46,2023-1-20T02:53:24Z
2023-01-20T00:50:06Z,42.805,6.029,13.3014,4.60077,2470.46,2023-1-20T02:56:27Z
2023-01-20T00:53:09Z,42.805,6.029,13.3014,4.60067,2470.474,2023-1-20T02:59:30Z
2023-01-20T00:56:12Z,42.805,6.029,13.3016,4.60070,2470.483,2023-1-20T03:02:33Z
2023-01-20T00:59:15Z,42.805,6.029,13.3018,4.60067,2470.437,2023-1-20T03:05:36Z
2023-01-20T01:02:18Z,42.805,6.029,13.3016,4.60072,2470.507,2023-1-20T03:08:39Z
2023-01-20T01:05:21Z,42.805,6.029,13.3015,4.60069,2470.45,2023-1-20T03:11:42Z
2023-01-20T01:08:24Z,42.805,6.029,13.3019,4.60069,2470.497,2023-1-20T03:14:45Z
2023-01-20T01:11:27Z,42.805,6.029,13.3015,4.60071,2470.46,2023-1-20T03:17:48Z
2023-01-20T01:14:30Z,42.805,6.029,13.3015,4.60072,2470.483,2023-1-20T03:20:51Z
2023-01-20T01:17:33Z,42.805,6.029,13.3016,4.60069,2470.507,2023-1-20T03:23:55Z
2023-01-20T01:20:36Z,42.805,6.029,13.3018,4.60068,2470.507,2023-1-20T03:26:58Z
2023-01-20T01:23:40Z,42.805,6.029,13.3014,4.60067,2470.46,2023-1-20T03:30:01Z
2023-01-20T01:26:43Z,42.805,6.029,13.3015,4.60067,2470.483,2023-1-20T03:33:04Z
2023-01-20T01:29:46Z,42.805,6.029,13.3013,4.60067,2470.483,2023-1-20T03:36:07Z
2023-01-20T01:32:49Z,42.805,6.029,13.3017,4.60068,2470.507,2023-1-20T03:39:10Z
2023-01-20T01:35:52Z,42.805,6.029,13.3015,4.60068,2470.52,2023-1-20T03:42:13Z
2023-01-20T01:38:55Z,42.805,6.029,13.3014,4.60068,2470.483,2023-1-20T03:45:16Z
2023-01-20T01:41:58Z,42.805,6.029,13.3012,4.60067,2470.507,2023-1-20T03:48:19Z
2023-01-20T01:45:01Z,42.805,6.029,13.3015,4.60067,2470.497,2023-1-20T03:51:22Z
2023-01-20T01:48:04Z,42.805,6.029,13.3014,4.60067,2470.507,2023-1-20T03:54:25Z
2023-01-20T01:51:07Z,42.805,6.029,13.3015,4.60070,2470.493,2023-1-20T03:57:29Z
2023-01-20T01:54:10Z,42.805,6.029,13.3015,4.60067,2470.507,2023-1-20T04:00:32Z
2023-01-20T01:57:13Z,42.805,6.029,13.3015,4.60068,2470.53,2023-1-20T04:03:35Z
2023-01-20T02:00:17Z,42.805,6.029,13.3014,4.60074,2470.53,2023-1-20T04:06:38Z
2023-01-20T02:03:20Z,42.805,6.029,13.3013,4.60070,2470.53,2023-1-20T04:09:41Z
2023-01-20T02:06:23Z,42.805,6.029,13.3014,4.60071,2470.544,2023-1-20T04:12:44Z
2023-01-20T02:09:26Z,42.805,6.029,13.3015,4.60067,2470.544,2023-1-20T04:15:47Z
2023-01-20T02:12:29Z,42.805,6.029,13.3015,4.60067,2470.53,2023-1-20T04:18:50Z
2023-01-20T02:15:32Z,42.805,6.029,13.3014,4.60066,2470.53,2023-1-20T04:21:53Z
2023-01-20T02:18:35Z,42.805,6.029,13.3015,4.60067,2470.544,2023-1-20T04:24:56Z
2023-01-20T02:21:38Z,42.805,6.029,13.3014,4.60072,2470.53,2023-1-20T04:27:59Z
2023-01-20T02:24:41Z,42.805,6.029,13.3014,4.60067,2470.516,2023-1-20T04:31:03Z
2023-01-20T02:27:44Z,42.805,6.029,13.3014,4.60068,2470.553,2023-1-20T04:34:06Z
2023-01-20T02:30:47Z,42.805,6.029,13.3016,4.60067,2470.544,2023-1-20T04:37:09Z
2023-01-20T02:33:51Z,42.805,6.029,13.3015,4.60067,2470.553,2023-1-20T04:40:12Z
2023-01-20T02:36:54Z,42.805,6.029,13.3014,4.60069,2470.553,2023-1-20T04:43:15Z
2023-01-20T02:39:57Z,42.805,6.029,13.3016,4.60069,2470.53,2023-1-20T04:46:18Z
2023-01-20T02:43:00Z,42.805,6.029,13.3014,4.60067,2470.577,2023-1-20T04:49:21Z
2023-01-20T02:46:03Z,42.805,6.029,13.3014,4.60067,2470.577,2023-1-20T04:52:24Z
2023-01-20T02:49:06Z,42.805,6.029,13.3019,4.60069,2470.577,2023-1-20T04:55:27Z
2023-01-20T02:52:09Z,42.805,6.029,13.3016,4.60071,2470.553,2023-1-20T04:58:30Z
2023-01-20T02:55:12Z,42.805,6.029,13.3017,4.60069,2470.6,2023-1-20T05:01:33Z
2023-01-20T02:58:15Z,42.805,6.029,13.3013,4.60069,2470.577,2023-1-20T05:04:36Z
2023-01-20T03:01:18Z,42.805,6.029,13.3018,4.60071,2470.577,2023-1-20T05:07:40Z
2023-01-20T03:04:21Z,42.805,6.029,13.3015,4.60069,2470.577,2023-1-20T05:10:43Z
2023-01-20T03:07:25Z,42.805,6.029,13.3014,4.60067,2470.577,2023-1-20T05:13:46Z
2023-01-20T03:10:28Z,42.805,6.029,13.3016,4.60069,2470.577,2023-1-20T05:16:49Z
2023-01-20T03:13:31Z,42.805,6.029,13.3015,4.60068,2470.577,2023-1-20T05:19:52Z
2023-01-20T03:16:34Z,42.805,6.029,13.3014,4.60072,2470.577,2023-1-20T05:22:55Z
2023-01-20T03:19:37Z,42.805,6.029,13.3016,4.60072,2470.6,2023-1-20T05:25:58Z
2023-01-20T03:22:40Z,42.805,6.029,13.3015,4.60069,2470.6,2023-1-20T05:29:01Z
2023-01-20T03:25:43Z,42.805,6.029,13.3017,4.60067,2470.61,2023-1-20T05:32:04Z
2023-01-20T03:28:46Z,42.805,6.029,13.3017,4.60069,2470.6,2023-1-20T05:35:07Z
2023-01-20T03:31:49Z,42.805,6.029,13.3018,4.60069,2470.624,2023-1-20T05:38:10Z
2023-01-20T03:34:52Z,42.805,6.029,13.3017,4.60068,2470.6,2023-1-20T05:41:14Z
2023-01-20T03:37:55Z,42.805,6.029,13.3016,4.60069,2470.577,2023-1-20T05:44:17Z
2023-01-20T03:40:58Z,42.805,6.029,13.3015,4.60069,2470.553,2023-1-20T05:47:20Z
2023-01-20T03:44:02Z,42.805,6.029,13.3016,4.60072,2470.624,2023-1-20T05:50:23Z
2023-01-20T03:47:05Z,42.805,6.029,13.3015,4.60068,2470.577,2023-1-20T05:53:26Z
2023-01-20T03:50:08Z,42.805,6.029,13.3015,4.60069,2470.624,2023-1-20T05:56:29Z
2023-01-20T03:53:11Z,42.805,6.029,13.3016,4.60067,2470.6,2023-1-20T05:59:32Z
2023-01-20T03:56:14Z,42.805,6.029,13.3014,4.60068,2470.624,2023-1-20T06:02:35Z
2023-01-20T03:59:17Z,42.805,6.029,13.3018,4.60067,2470.624,2023-1-20T06:05:38Z
2023-01-20T04:02:20Z,42.805,6.029,13.3018,4.60069,2470.637,2023-1-20T06:08:41Z
2023-01-20T04:05:23Z,42.805,6.029,13.3019,4.60070,2470.624,2023-1-20T06:11:44Z
2023-01-20T04:08:26Z,42.805,6.029,13.3019,4.60068,2470.624,2023-1-20T06:14:48Z
2023-01-20T04:11:29Z,42.805,6.029,13.3016,4.60068,2470.6,2023-1-20T06:17:51Z
2023-01-20T04:14:32Z,42.805,6.029,13.3016,4.60069,2470.624,2023-1-20T06:20:54Z
2023-01-20T04:17:36Z,42.805,6.029,13.3017,4.60070,2470.624,2023-1-20T06:23:57Z
2023-01-20T04:20:39Z,42.805,6.029,13.3015,4.60069,2470.624,2023-1-20T06:27:00Z
2023-01-20T04:23:42Z,42.805,6.029,13.3019,4.60069,2470.624,2023-1-20T06:30:03Z
2023-01-20T04:26:45Z,42.805,6.029,13.3011,4.60069,2470.624,2023-1-20T06:33:06Z
2023-01-20T04:29:48Z,42.805,6.029,13.3014,4.60069,2470.661,2023-1-20T06:36:09Z
2023-01-20T04:32:51Z,42.805,6.029,13.3014,4.60069,2470.646,2023-1-20T06:39:12Z
2023-01-20T04:35:54Z,42.805,6.029,13.3019,4.60067,2470.67,2023-1-20T06:42:15Z
2023-01-20T04:38:57Z,42.805,6.029,13.3019,4.60068,2470.646,2023-1-20T06:45:18Z
2023-01-20T04:42:00Z,42.805,6.029,13.3018,4.60069,2470.661,2023-1-20T06:48:22Z
2023-01-20T04:45:03Z,42.805,6.029,13.3018,4.60070,2470.646,2023-1-20T06:51:25Z
2023-01-20T04:48:06Z,42.805,6.029,13.3015,4.60069,2470.67,2023-1-20T06:54:28Z
2023-01-20T04:51:09Z,42.805,6.029,13.3016,4.60071,2470.67,2023-1-20T06:57:31Z
2023-01-20T04:54:13Z,42.805,6.029,13.3018,4.60069,2470.67,2023-1-20T07:00:34Z
2023-01-20T04:57:16Z,42.805,6.029,13.3017,4.60068,2470.717,2023-1-20T07:03:37Z
2023-01-20T05:00:19Z,42.805,6.029,13.3014,4.60068,2470.67,2023-1-20T07:06:40Z
2023-01-20T05:03:22Z,42.805,6.029,13.3017,4.60067,2470.67,2023-1-20T07:09:43Z
2023-01-20T05:06:25Z,42.805,6.029,13.3018,4.60074,2470.693,2023-1-20T07:12:46Z
2023-01-20T05:09:28Z,42.805,6.029,13.3014,4.60069,2470.684,2023-1-20T07:15:49Z
2023-01-20T05:12:31Z,42.805,6.029,13.3014,4.60069,2470.684,2023-1-20T07:18:52Z
2023-01-20T05:15:34Z,42.805,6.029,13.3015,4.60071,2470.67,2023-1-20T07:21:56Z
2023-01-20T05:18:37Z,42.805,6.029,13.3015,4.60069,2470.67,2023-1-20T07:24:59Z
2023-01-20T05:21:40Z,42.805,6.029,13.3012,4.60068,2470.693,2023-1-20T07:28:02Z
2023-01-20T05:24:43Z,42.805,6.029,13.3015,4.60067,2470.693,2023-1-20T07:31:05Z
2023-01-20T05:27:46Z,42.805,6.029,13.3015,4.60067,2470.693,2023-1-20T07:34:08Z
2023-01-20T05:30:50Z,42.805,6.029,13.3020,4.60067,2470.661,2023-1-20T07:37:11Z
2023-01-20T05:33:53Z,42.805,6.029,13.3015,4.60069,2470.707,2023-1-20T07:40:14Z
2023-01-20T05:36:56Z,42.805,6.029,13.3016,4.60069,2470.707,2023-1-20T07:43:17Z
2023-01-20T05:39:59Z,42.805,6.029,13.3013,4.60067,2470.693,2023-1-20T07:46:20Z
2023-01-20T05:43:02Z,42.805,6.029,13.3015,4.60069,2470.707,2023-1-20T07:49:23Z
2023-01-20T05:46:05Z,42.805,6.029,13.3016,4.60067,2470.73,2023-1-20T07:52:26Z
2023-01-20T05:49:08Z,42.805,6.029,13.3014,4.60071,2470.693,2023-1-20T07:55:29Z
2023-01-20T05:52:11Z,42.805,6.029,13.3015,4.60067,2470.73,2023-1-20T07:58:33Z
2023-01-20T05:55:14Z,42.805,6.029,13.3015,4.60067,2470.693,2023-1-20T08:01:36Z
2023-01-20T05:58:17Z,42.805,6.029,13.3019,4.60067,2470.707,2023-1-20T08:04:39Z
2023-01-20T06:01:20Z,42.805,6.029,13.3014,4.60067,2470.707,2023-1-20T08:07:42Z
2023-01-20T06:04:24Z,42.805,6.029,13.3014,4.60070,2470.693,2023-1-20T08:10:45Z
2023-01-20T06:07:27Z,42.805,6.029,13.3012,4.60069,2470.693,2023-1-20T08:13:48Z
2023-01-20T06:10:30Z,42.805,6.029,13.3015,4.60069,2470.693,2023-1-20T08:16:51Z
2023-01-20T06:13:33Z,42.805,6.029,13.3017,4.60067,2470.693,2023-1-20T08:19:54Z
2023-01-20T06:16:36Z,42.805,6.029,13.3015,4.60067,2470.707,2023-1-20T08:22:57Z
2023-01-20T06:19:39Z,42.805,6.029,13.3015,4.60067,2470.717,2023-1-20T08:26:00Z
2023-01-20T06:22:42Z,42.805,6.029,13.3014,4.60069,2470.693,2023-1-20T08:29:03Z
2023-01-20T06:25:45Z,42.805,6.029,13.3016,4.60068,2470.73,2023-1-20T08:32:06Z
2023-01-20T06:28:48Z,42.805,6.029,13.3020,4.60072,2470.717,2023-1-20T08:35:10Z
2023-01-20T06:31:51Z,42.805,6.029,13.3014,4.60067,2470.703,2023-1-20T08:38:13Z
2023-01-20T06:34:54Z,42.805,6.029,13.3015,4.60067,2470.717,2023-1-20T08:41:16Z
2023-01-20T06:37:57Z,42.805,6.029,13.3013,4.60067,2470.74,2023-1-20T08:44:19Z
2023-01-20T06:41:01Z,42.805,6.029,13.3013,4.60067,2470.67,2023-1-20T08:47:22Z
2023-01-20T06:44:04Z,42.805,6.029,13.3025,4.60072,2470.717,2023-1-20T08:50:25Z
2023-01-20T06:47:07Z,42.805,6.029,13.3018,4.60069,2470.693,2023-1-20T08:53:28Z
2023-01-20T06:50:10Z,42.805,6.029,13.3023,4.60067,2470.717,2023-1-20T08:56:31Z
2023-01-20T06:53:13Z,42.805,6.029,13.3011,4.60069,2470.707,2023-1-20T08:59:34Z
2023-01-20T06:56:16Z,42.805,6.029,13.3015,4.60067,2470.693,2023-1-20T09:02:37Z
2023-01-20T06:59:19Z,42.805,6.029,13.3013,4.60068,2470.74,2023-1-20T09:05:40Z
2023-01-20T07:02:22Z,42.805,6.029,13.3015,4.60068,2470.73,2023-1-20T09:08:44Z
2023-01-20T07:05:25Z,42.805,6.029,13.3021,4.60069,2470.73,2023-1-20T09:11:47Z
2023-01-20T07:08:28Z,42.805,6.029,13.3026,4.60073,2470.74,2023-1-20T09:14:50Z
2023-01-20T07:11:31Z,42.805,6.029,13.3015,4.60069,2470.693,2023-1-20T09:17:53Z
2023-01-20T07:14:34Z,42.805,6.029,13.3016,4.60067,2470.717,2023-1-20T09:20:56Z
2023-01-20T07:17:38Z,42.805,6.029,13.3014,4.60068,2470.726,2023-1-20T09:23:59Z
2023-01-20T07:20:41Z,42.805,6.029,13.3017,4.60069,2470.717,2023-1-20T09:27:02Z
2023-01-20T07:23:44Z,42.805,6.029,13.3013,4.60068,2470.717,2023-1-20T09:30:05Z
2023-01-20T07:26:47Z,42.805,6.029,13.3015,4.60066,2470.693,2023-1-20T09:33:08Z
2023-01-20T07:29:50Z,42.805,6.029,13.3018,4.60073,2470.717,2023-1-20T09:36:11Z
2023-01-20T07:32:53Z,42.805,6.029,13.3020,4.60068,2470.717,2023-1-20T09:39:14Z
2023-01-20T07:35:56Z,42.805,6.029,13.3019,4.60068,2470.707,2023-1-20T09:42:18Z
2023-01-20T07:38:59Z,42.805,6.029,13.3017,4.60068,2470.74,2023-1-20T09:45:21Z
2023-01-20T07:42:02Z,42.805,6.029,13.3018,4.60075,2470.703,2023-1-20T09:48:24Z
2023-01-20T07:45:05Z,42.805,6.029,13.3014,4.60067,2470.693,2023-1-20T09:51:27Z
2023-01-20T07:48:08Z,42.805,6.029,13.3015,4.60067,2470.717,2023-1-20T09:54:30Z
2023-01-20T07:51:12Z,42.805,6.029,13.3020,4.60070,2470.707,2023-1-20T09:57:33Z
2023-01-20T07:54:15Z,42.805,6.029,13.3020,4.60069,2470.67,2023-1-20T10:00:36Z
2023-01-20T07:57:18Z,42.805,6.029,13.3021,4.60067,2470.717,2023-1-20T10:03:39Z
2023-01-20T08:00:21Z,42.805,6.029,13.3027,4.60078,2470.717,2023-1-20T10:06:42Z
2023-01-20T08:03:24Z,42.805,6.029,13.3024,4.60086,2470.73,2023-1-20T10:09:45Z
2023-01-20T08:06:27Z,42.805,6.029,13.3022,4.60073,2470.693,2023-1-20T10:12:48Z
2023-01-20T08:09:30Z,42.805,6.029,13.3020,4.60072,2470.67,2023-1-20T10:15:51Z
2023-01-20T08:12:33Z,42.805,6.029,13.3020,4.60067,2470.707,2023-1-20T10:18:55Z
2023-01-20T08:15:36Z,42.805,6.029,13.3015,4.60066,2470.73,2023-1-20T10:21:58Z
2023-01-20T08:18:39Z,42.805,6.029,13.3015,4.60065,2470.717,2023-1-20T10:25:01Z
2023-01-20T08:21:42Z,42.805,6.029,13.3018,4.60069,2470.693,2023-1-20T10:28:04Z
2023-01-20T08:24:46Z,42.805,6.029,13.3014,4.60067,2470.693,2023-1-20T10:31:07Z
2023-01-20T08:27:49Z,42.805,6.029,13.3021,4.60067,2470.707,2023-1-20T10:34:10Z
2023-01-20T08:30:52Z,42.805,6.029,13.3018,4.60073,2470.707,2023-1-20T10:37:13Z
2023-01-20T08:33:55Z,42.805,6.029,13.3024,4.60069,2470.693,2023-1-20T10:40:16Z
2023-01-20T08:36:58Z,42.805,6.029,13.3014,4.60069,2470.693,2023-1-20T10:43:19Z
2023-01-20T08:40:01Z,42.805,6.029,13.3013,4.60067,2470.707,2023-1-20T10:46:22Z
2023-01-20T08:43:04Z,42.805,6.029,13.3025,4.60081,2470.693,2023-1-20T10:49:26Z
2023-01-20T08:46:07Z,42.805,6.029,13.3031,4.60081,2470.646,2023-1-20T10:52:29Z
2023-01-20T08:49:10Z,42.805,6.029,13.3021,4.60069,2470.67,2023-1-20T10:55:32Z
2023-01-20T08:52:13Z,42.805,6.029,13.3023,4.60089,2470.707,2023-1-20T10:58:35Z
2023-01-20T08:55:16Z,42.805,6.029,13.3014,4.60072,2470.717,2023-1-20T11:01:38Z
2023-01-20T08:58:20Z,42.805,6.029,13.3015,4.60067,2470.717,2023-1-20T11:04:41Z
2023-01-20T09:01:23Z,42.805,6.029,13.3015,4.60067,2470.693,2023-1-20T11:07:44Z
2023-01-20T09:04:26Z,42.805,6.029,13.3031,4.60082,2470.693,2023-1-20T11:10:47Z
2023-01-20T09:07:29Z,42.805,6.029,13.3029,4.60087,2470.693,2023-1-20T11:13:50Z
2023-01-20T09:10:32Z,42.805,6.029,13.3027,4.60079,2470.693,2023-1-20T11:16:53Z
2023-01-20T09:13:35Z,42.805,6.029,13.3024,4.60074,2470.67,2023-1-20T11:19:56Z
2023-01-20T09:16:38Z,42.805,6.029,13.3019,4.60076,2470.707,2023-1-20T11:23:00Z
2023-01-20T09:19:41Z,42.805,6.029,13.3024,4.60080,2470.693,2023-1-20T11:26:03Z
2023-01-20T09:22:44Z,42.805,6.029,13.3024,4.60086,2470.693,2023-1-20T11:29:06Z
2023-01-20T09:25:47Z,42.805,6.029,13.3025,4.60074,2470.684,2023-1-20T11:32:09Z
2023-01-20T09:28:50Z,42.805,6.029,13.3026,4.60084,2470.707,2023-1-20T11:35:12Z
2023-01-20T09:31:54Z,42.805,6.029,13.3026,4.60096,2470.717,2023-1-20T11:38:15Z
2023-01-20T09:34:57Z,42.805,6.029,13.3026,4.60084,2470.707,2023-1-20T11:41:18Z
2023-01-20T09:38:00Z,42.805,6.029,13.3033,4.60099,2470.67,2023-1-20T11:44:21Z
2023-01-20T09:41:03Z,42.805,6.029,13.3029,4.60099,2470.67,2023-1-20T11:47:24Z
2023-01-20T09:44:06Z,42.805,6.029,13.3020,4.60084,2470.67,2023-1-20T11:50:27Z
2023-01-20T09:47:09Z,42.805,6.029,13.3034,4.60092,2470.684,2023-1-20T11:53:30Z
2023-01-20T09:50:12Z,42.805,6.029,13.3031,4.60088,2470.684,2023-1-20T11:56:34Z
2023-01-20T09:53:15Z,42.805,6.029,13.3031,4.60097,2470.661,2023-1-20T11:59:37Z
2023-01-20T09:56:18Z,42.805,6.029,13.3026,4.60085,2470.707,2023-1-20T12:02:40Z
2023-01-20T09:59:21Z,42.805,6.029,13.3024,4.60107,2470.693,2023-1-20T12:05:43Z
2023-01-20T10:02:24Z,42.805,6.029,13.3025,4.60087,2470.67,2023-1-20T12:08:46Z
2023-01-20T10:05:28Z,42.805,6.029,13.3025,4.60097,2470.707,2023-1-20T12:11:49Z
2023-01-20T10:08:31Z,42.805,6.029,13.3026,4.60099,2470.661,2023-1-20T12:14:52Z
2023-01-20T10:11:34Z,42.805,6.029,13.3028,4.60091,2470.707,2023-1-20T12:17:55Z
2023-01-20T10:14:37Z,42.805,6.029,13.3023,4.60103,2470.646,2023-1-20T12:20:58Z
2023-01-20T10:17:40Z,42.805,6.029,13.3018,4.60091,2470.646,2023-1-20T12:24:01Z
2023-01-20T10:20:43Z,42.805,6.029,13.3031,4.60108,2470.646,2023-1-20T12:27:05Z
2023-01-20T10:23:46Z,42.805,6.029,13.3034,4.60096,2470.646,2023-1-20T12:30:08Z
2023-01-20T10:26:49Z,42.805,6.029,13.3029,4.60093,2470.67,2023-1-20T12:33:11Z
2023-01-20T10:29:52Z,42.805,6.029,13.3029,4.60099,2470.637,2023-1-20T12:36:14Z
2023-01-20T10:32:55Z,42.805,6.029,13.3029,4.60097,2470.707,2023-1-20T12:39:17Z
2023-01-20T10:35:58Z,42.805,6.029,13.3031,4.60104,2470.624,2023-1-20T12:42:20Z
2023-01-20T10:39:02Z,42.805,6.029,13.3027,4.60093,2470.624,2023-1-20T12:45:23Z
2023-01-20T10:42:05Z,42.805,6.029,13.3029,4.60087,2470.661,2023-1-20T12:48:26Z
2023-01-20T10:45:08Z,42.805,6.029,13.3034,4.60114,2470.661,2023-1-20T12:51:29Z
2023-01-20T10:48:11Z,42.805,6.029,13.3023,4.60087,2470.624,2023-1-20T12:54:32Z
2023-01-20T10:51:14Z,42.805,6.029,13.3030,4.60097,2470.646,2023-1-20T12:57:35Z
2023-01-20T10:54:17Z,42.805,6.029,13.3032,4.60101,2470.661,2023-1-20T13:00:39Z
2023-01-20T10:57:20Z,42.805,6.029,13.3028,4.60093,2470.6,2023-1-20T13:03:42Z
2023-01-20T11:00:23Z,42.805,6.029,13.3028,4.60101,2470.637,2023-1-20T13:06:45Z
2023-01-20T11:03:26Z,42.805,6.029,13.3026,4.60101,2470.6,2023-1-20T13:09:48Z
2023-01-20T11:06:29Z,42.805,6.029,13.3029,4.60104,2470.646,2023-1-20T13:12:51Z
2023-01-20T11:09:33Z,42.805,6.029,13.3028,4.60102,2470.624,2023-1-20T13:15:54Z
2023-01-20T11:12:36Z,42.805,6.029,13.3031,4.60099,2470.6,2023-1-20T13:18:57Z
2023-01-20T11:15:39Z,42.805,6.029,13.3029,4.60087,2470.624,2023-1-20T13:22:00Z
2023-01-20T11:18:42Z,42.805,6.029,13.3026,4.60097,2470.637,2023-1-20T13:25:03Z
2023-01-20T11:21:45Z,42.805,6.029,13.3024,4.60094,2470.624,2023-1-20T13:28:06Z
2023-01-20T11:24:48Z,42.805,6.029,13.3030,4.60103,2470.624,2023-1-20T13:31:09Z
2023-01-20T11:27:51Z,42.805,6.029,13.3031,4.60104,2470.624,2023-1-20T13:34:13Z
2023-01-20T11:30:54Z,42.805,6.029,13.3027,4.60089,2470.624,2023-1-20T13:37:16Z
2023-01-20T11:33:57Z,42.805,6.029,13.3031,4.60110,2470.624,2023-1-20T13:40:19Z
2023-01-20T11:37:00Z,42.805,6.029,13.3030,4.60103,2470.624,2023-1-20T13:43:22Z
2023-01-20T11:40:03Z,42.805,6.029,13.3029,4.60104,2470.61,2023-1-20T13:46:25Z
2023-01-20T11:43:07Z,42.805,6.029,13.3036,4.60110,2470.6,2023-1-20T13:49:28Z
2023-01-20T11:46:10Z,42.805,6.029,13.3037,4.60104,2470.637,2023-1-20T13:52:31Z
2023-01-20T11:49:13Z,42.805,6.029,13.3040,4.60114,2470.624,2023-1-20T13:55:34Z
2023-01-20T11:52:16Z,42.805,6.029,13.3031,4.60115,2470.6,2023-1-20T13:58:37Z
2023-01-20T11:55:19Z,42.805,6.029,13.3031,4.60117,2470.591,2023-1-20T14:01:40Z
2023-01-20T11:58:22Z,42.805,6.029,13.3032,4.60103,2470.614,2023-1-20T14:04:44Z
2023-01-20T12:01:25Z,42.805,6.029,13.3027,4.60115,2470.624,2023-1-20T14:07:47Z
2023-01-20T12:04:28Z,42.805,6.029,13.3032,4.60108,2470.624,2023-1-20T14:10:50Z
2023-01-20T12:07:31Z,42.805,6.029,13.3033,4.60109,2470.624,2023-1-20T14:13:53Z
2023-01-20T12:10:34Z,42.805,6.029,13.3029,4.60104,2470.624,2023-1-20T14:16:56Z
2023-01-20T12:13:37Z,42.805,6.029,13.3033,4.60099,2470.6,2023-1-20T14:19:59Z
2023-01-20T12:16:40Z,42.805,6.029,13.3028,4.60096,2470.577,2023-1-20T14:23:02Z
2023-01-20T12:19:44Z,42.805,6.029,13.3031,4.60104,2470.577,2023-1-20T14:26:05Z
2023-01-20T12:22:47Z,42.805,6.029,13.3031,4.60110,2470.624,2023-1-20T14:29:08Z
2023-01-20T12:25:50Z,42.805,6.029,13.3031,4.60104,2470.624,2023-1-20T14:32:11Z
2023-01-20T12:28:53Z,42.805,6.029,13.3031,4.60096,2470.637,2023-1-20T14:35:14Z
2023-01-20T12:31:56Z,42.805,6.029,13.3029,4.60102,2470.6,2023-1-20T14:38:18Z
2023-01-20T12:34:59Z,42.805,6.029,13.3029,4.60100,2470.6,2023-1-20T14:41:21Z
2023-01-20T12:38:02Z,42.805,6.029,13.3026,4.60104,2470.624,2023-1-20T14:44:24Z
2023-01-20T12:41:05Z,42.805,6.029,13.3034,4.60112,2470.624,2023-1-20T14:47:27Z
2023-01-20T12:44:08Z,42.805,6.029,13.3028,4.60102,2470.577,2023-1-20T14:50:30Z
2023-01-20T12:47:11Z,42.805,6.029,13.3034,4.60106,2470.624,2023-1-20T14:53:33Z
2023-01-20T12:50:15Z,42.805,6.029,13.3031,4.60112,2470.591,2023-1-20T14:56:36Z
2023-01-20T12:53:18Z,42.805,6.029,13.3029,4.60095,2470.577,2023-1-20T14:59:39Z
2023-01-20T12:56:21Z,42.805,6.029,13.3031,4.60104,2470.544,2023-1-20T15:02:42Z
2023-01-20T12:59:24Z,42.805,6.029,13.3028,4.60090,2470.637,2023-1-20T15:05:45Z
2023-01-20T13:02:27Z,42.805,6.029,13.3039,4.60113,2470.591,2023-1-20T15:08:48Z
2023-01-20T13:05:30Z,42.805,6.029,13.3029,4.60099,2470.577,2023-1-20T15:11:52Z
2023-01-20T13:08:33Z,42.805,6.029,13.3030,4.60093,2470.577,2023-1-20T15:14:55Z
2023-01-20T13:11:36Z,42.805,6.029,13.3036,4.60110,2470.577,2023-1-20T15:17:58Z
2023-01-20T13:14:39Z,42.805,6.029,13.3032,4.60103,2470.624,2023-1-20T15:21:01Z
2023-01-20T13:17:42Z,42.805,6.029,13.3029,4.60110,2470.6,2023-1-20T15:24:04Z
2023-01-20T13:20:45Z,42.805,6.029,13.3032,4.60114,2470.637,2023-1-20T15:27:07Z
2023-01-20T13:23:49Z,42.805,6.029,13.3034,4.60110,2470.6,2023-1-20T15:30:10Z
2023-01-20T13:26:52Z,42.805,6.029,13.3038,4.60109,2470.577,2023-1-20T15:33:13Z
2023-01-20T13:29:55Z,42.805,6.029,13.3038,4.60122,2470.577,2023-1-20T15:36:16Z
2023-01-20T13:32:58Z,42.805,6.029,13.3031,4.60103,2470.591,2023-1-20T15:39:19Z
2023-01-20T13:36:01Z,42.805,6.029,13.3043,4.60112,2470.6,2023-1-20T15:42:22Z
2023-01-20T13:39:04Z,42.805,6.029,13.3033,4.60104,2470.614,2023-1-20T15:45:26Z
2023-01-20T13:42:07Z,42.805,6.029,13.3031,4.60117,2470.614,2023-1-20T15:48:29Z
2023-01-20T13:45:10Z,42.805,6.029,13.3027,4.60100,2470.624,2023-1-20T15:51:32Z
2023-01-20T13:48:13Z,42.805,6.029,13.3025,4.60140,2470.567,2023-1-20T15:54:35Z
2023-01-20T13:51:16Z,42.805,6.029,13.3026,4.60112,2470.614,2023-1-20T15:57:38Z
2023-01-20T13:54:19Z,42.805,6.029,13.3031,4.60116,2470.591,2023-1-20T16:00:41Z
2023-01-20T13:57:23Z,42.805,6.029,13.3032,4.60116,2470.614,2023-1-20T16:03:44Z
2023-01-20T14:00:26Z,42.805,6.029,13.3032,4.60099,2470.614,2023-1-20T16:06:47Z
2023-01-20T14:03:29Z,42.805,6.029,13.3034,4.60108,2470.624,2023-1-20T16:09:50Z
2023-01-20T14:06:32Z,42.805,6.029,13.3026,4.60101,2470.624,2023-1-20T16:12:53Z
2023-01-20T14:09:35Z,42.805,6.029,13.3034,4.60111,2470.637,2023-1-20T16:15:57Z
2023-01-20T14:12:38Z,42.805,6.029,13.3036,4.60107,2470.6,2023-1-20T16:19:00Z
2023-01-20T14:15:41Z,42.805,6.029,13.3037,4.60102,2470.637,2023-1-20T16:22:03Z
2023-01-20T14:18:44Z,42.805,6.029,13.3032,4.60114,2470.6,2023-1-20T16:25:06Z
2023-01-20T14:21:47Z,42.805,6.029,13.3029,4.60099,2470.6,2023-1-20T16:28:09Z
2023-01-20T14:24:50Z,42.805,6.029,13.3029,4.60099,2470.614,2023-1-20T16:31:12Z
2023-01-20T14:27:53Z,42.805,6.029,13.3032,4.60097,2470.637,2023-1-20T16:34:15Z
2023-01-20T14:30:57Z,42.805,6.029,13.3031,4.60107,2470.624,2023-1-20T16:37:18Z
2023-01-20T14:34:00Z,42.805,6.029,13.3041,4.60132,2470.6,2023-1-20T16:40:21Z
2023-01-20T14:37:03Z,42.805,6.029,13.3029,4.60102,2470.6,2023-1-20T16:43:24Z
2023-01-20T14:40:06Z,42.805,6.029,13.3034,4.60124,2470.624,2023-1-20T16:46:27Z
2023-01-20T14:43:09Z,42.805,6.029,13.3039,4.60112,2470.637,2023-1-20T16:49:31Z
2023-01-20T14:46:12Z,42.805,6.029,13.3034,4.60110,2470.646,2023-1-20T16:52:34Z
2023-01-20T14:49:15Z,42.805,6.029,13.3050,4.60110,2470.624,2023-1-20T16:55:37Z
2023-01-20T14:52:18Z,42.805,6.029,13.3040,4.60117,2470.6,2023-1-20T16:58:40Z
2023-01-20T14:55:21Z,42.805,6.029,13.3035,4.60098,2470.637,2023-1-20T17:01:43Z
2023-01-20T14:58:24Z,42.805,6.029,13.3043,4.60117,2470.661,2023-1-20T17:04:46Z
2023-01-20T15:01:27Z,42.805,6.029,13.3032,4.60119,2470.646,2023-1-20T17:07:49Z
2023-01-20T15:04:31Z,42.805,6.029,13.3035,4.60101,2470.624,2023-1-20T17:10:52Z
2023-01-20T15:07:34Z,42.805,6.029,13.3035,4.60104,2470.646,2023-1-20T17:13:55Z
2023-01-20T15:10:37Z,42.805,6.029,13.3030,4.60104,2470.624,2023-1-20T17:16:58Z
2023-01-20T15:13:40Z,42.805,6.029,13.3038,4.60115,2470.684,2023-1-20T17:20:01Z